Francistown, Botswana

12:23 PM CAT on August 22, 2017 (GMT +0200)
Francistown | | Change Station

Elev 3281 ft 21.22 °S, 27.50 °E | Updated 23 minutes ago

Clear
Clear
81 °F
Feels Like 81 °F
N
8
Wind Variable Wind from WSW

Today
High -- | Low -- °F
--% Chance of Precip.
Yesterday
High -- | Low -- °F
Precip. -- in
Pressure 30.12 in
Visibility -9999.0 miles
Clouds
Dew Point 37 °F
Humidity 21%
Rainfall 0.00 in
Snow Depth Not available.
6:27 AM 5:58 PM
New Moon, 1% visible
METAR FBFT 221000Z 24007KT 180V300 CAVOK 27/03 Q1020
Pressure 30.12 in
Visibility -9999.0 miles
Clouds
Dew Point 37 °F
Humidity 21%
Rainfall 0.00 in
Snow Depth Not available.
6:27 AM 5:58 PM
New Moon, 1% visible
METAR FBFT 221000Z 24007KT 180V300 CAVOK 27/03 Q1020

Get Severe Weather Alerts

Thanks for signing up!

Be on the lookout for a verification email in your inbox.

You'll start receiving the daily forecast at 6 AM.

×

10-Day Weather Forecast

No radar image for this location.
×

Almanac

Astronomy

Aug. 22, 2017 Rise Set
Actual Time
Civil Twilight
Nautical Twilight
Astronomical Twilight
Moon
Length of Visible Light
Length of Day
Tomorrow will be .
, % of the Moon is Illuminated

Today's Extremes

Country Highs Country Lows

Community

WunderPhotos

Category 6

Welcome to Category 6. This is the collective home for Weather Underground's featured writeups by Dr. Jeff Masters (right), Bob Henson (left), Chris Burt, and other regular contributors.

Nearby

Air Quality

  Air Quality AQ Index Pollutant
Not available.

Snow Depth

Station Depth Elevation

Earthquake Activity

City Distance Mag. Time & Date
Minimum magnitude displayed is 2.5.

Coastal Water Temperatures

Place Temperature

Stations

Nearby Weather Stations

Station Location Temp. Windchill Dew Point Humidity Wind Precip. Elev Updated Type